sat.trackr.live / text

‹ back to catalog

BLACKCAT

NORAD 67369 · 2026-004G

PAYLOAD ACTIVE UNKNOWN

§ Identity

Operator
Country
US
Launch date
2026-01-11
Launch site
AFWTR
Launch vehicle
Mass (kg)
RCS (m²)

External: N2YO · Heavens-Above · Gunter

§ Orbital elements

Epoch: 2026-05-24T22:45:49.110048Z

Period
96.80 min
Inclination
97.7981°
Eccentricity
0.0006160
Mean motion
14.87578195 rev/d
Perigee alt
601.2 km
Apogee alt
609.8 km
Semi-major
6,983.6 km
B*
1.3942e-4
RAAN
143.7855°
Arg perigee
209.8187°
Mean anomaly
150.2679°
Rev number
1,983

§ Raw data

BLACKCAT1 67369U 26004G   26144.94848507  .00001212  00000+0  13942-3 0  99922 67369  97.7981 143.7855 0006160 209.8187 150.2679 14.87578195 19831

JSON: /api/v1/satellites/67369 · /tle

For live sub-satellite position, see the globe view (requires WebGL).

§ Visibility from observer

Set your observer location to see the next 7 days of passes ≥ 10°. The values pass through the URL so the page stays shareable.

No JS? Fill the form by hand. The geolocation button needs JavaScript.

§ Radio — SatNOGS DB

ModeDescriptionDownlinkUplink
GFSK BlackCAT Transmitter: 2GFSK, 2400 baud, TX power 3.01 dbW, min antenna gain -4 dbi 402.000 MHz

1 transmitter · refreshed weekly from db.satnogs.org